User: anonymous   Login
Location: Newark
(41.0400°S, 62.7845°W)
Time: 03:08:37
(UTC+00:00)
Language:

PCSat - Orbit

View from above orbital plane
View from above orbital plane
View from above satellite
View from above satellite

Ground track
Ground track

The orbit data is extracted from the following two-line orbital elements,

1 26931U 01043C   22019.47871436  .00000047  00000-0  49695-4 0  9991
2 26931  67.0515  82.9095 0006912 280.4783  79.5539 14.30655742 60090
Epoch (UTC): 19 January 2022 11:29:20
Eccentricity: 0.0006912
inclination: 67.0515°
perigee height: 784 km
apogee height: 794 km
right ascension of ascending node: 82.9095°
argument of perigee: 280.4783°
revolutions per day: 14.30655742
mean anomaly at epoch: 79.5539°
orbit number at epoch: 6009

The dashed part of the orbit path shows where the satellite is in the earth's shadow,  

DLR